STARLINK-11443, 62512

Orbit data source: Space-Track

STARLINK-11443, 62512 is a payload satellite owned by SpaceX/Seattle (US) in LEO that was launched on Wed, 08 Jan 2025 UTC via an FALCON 9 launch vehicle from the Air Force Eastern Test Range (AFETR). Payload-class satellites include a variety of spacecraft equipped with specific instruments for various scientific and technological missions. These include communications satellites like Starlink; space stations such as the ISS; scientific satellites like the Hubble; Earth observation satellites from companies like Planet Labs, Umbra, and HawkEye 360; GPS; miniature CubeSats for education and research; and military/defense satellites.

Loading next visibility...
Identifier
62512, 2025-004B
Orbit
LEO
Country
Flag of USUS
Related business
Manufacturer
SpaceX/Seattle
Mission
Operational Commercial Communications
Bus & Motor
STARLINK V2MD, Unknown motor
Mass
960 kg wet, ~910 kg dry
Launch date (UTC)
2025-01-08 (10 months ago)
Launch vehicle
FALCON 9
Launch site
Air Force Eastern Test Range (AFETR)
Object type
Payload
Rocket body
Debris
Shape & HBR
Box + 2 Pan, 18.1 m
Radar Cross Section
36.964 m², Large (>1 m²)

Expand to show TLE details & history
Last TLE update: 16 hours ago

TLE from 16 hours ago
0 STARLINK-11443
1 62512U 25004B   25308.81123543  .00234189  00000-0  17753-2 0  9994
2 62512  43.0001 103.8841 0001805 290.0366  70.0307 15.70871778 47561
Epoch: 2025-11-04T19:28Z
TLE epoch observation values (Epoch: 2025-11-04T19:28:10.741Z)
Latitude
-0.00002°
Longitude
127.54642°
Altitude
355.761 km
Speed
7.698 km/s
True Right ascension
06h 55m 32s
True Declination
0° 00' 00"
Sunlit
Object was in full shadow at epoch
Visualization orbit readout
Latitude
Unknown
Longitude
Unknown
Altitude
Unknown
Speed
Unknown
Apparent Right ascension
Unknown
Apparent Declination
Unknown
Sunlit
N/A
Visualization observer readout
Local Sidereal Time
07:06:23
Azimuth
Unknown
Elevation
Unknown
Doppler factor
Unknown
Orbital elements
Apogee altitude
359.602 km
Perigee altitude
357.17 km
Semi-major axis
6,736.523 km
Eccentricity
0.00018
Inclination
43.0001°
RAAN
103.8841°
Arg. of periapsis
290.0366°
True anomaly
70.05014°
Mean anomaly
70.0307°
Eccentric anomaly
70.04042°
Mean motion
3.92545 °/min
Orbital period
91.71 mins
BSTAR
0.0017753
Loading maneuver chart data...
Computing Atmospheric mass density...
Loading historical data...
Loading historical data...
Loading historical data...
Loading historical data...
Loading historical data...
Loading historical data...
Loading historical data...

Documentation

Showing up to 5 results
|